| time (UTC) | temp F | wind direction | speed knots | gust knots | rain 1hr in | rain 24hr in | rain mn in | humidity % | barometer mb |
| 20260509024510 | 52 | 205 | 0.0 | 0.9 | 0.00 | 0.09 | 0.04 | 85 | 1009.1 |
| 20260509023007 | 52 | 227 | 0.0 | 1.7 | 0.00 | 0.12 | 0.04 | 85 | 1009.1 |
| 20260509021505 | 52 | 218 | 0.9 | 2.6 | 0.00 | 0.13 | 0.04 | 84 | 1009.1 |
| 20260509020007 | 53 | 222 | 0.0 | 0.9 | 0.00 | 0.13 | 0.04 | 83 | 1009.2 |
| 20260509014512 | 53 | 227 | 0.9 | 3.5 | 0.00 | 0.13 | 0.04 | 83 | 1009.0 |
| 20260509013023 | 53 | 210 | 0.9 | 3.5 | 0.00 | 0.13 | 0.04 | 82 | 1008.9 |
| 20260509011505 | 54 | 243 | 0.0 | 2.6 | 0.00 | 0.13 | 0.04 | 82 | 1008.8 |
| 20260509010013 | 54 | 224 | 0.9 | 2.6 | 0.00 | 0.13 | 0.04 | 81 | 1008.6 |
| 20260509004511 | 54 | 223 | 2.6 | 6.1 | 0.00 | 0.13 | 0.04 | 80 | 1008.6 |
| 20260509003016 | 55 | 225 | 3.5 | 5.2 | 0.00 | 0.13 | 0.04 | 80 | 1008.6 |
| 20260509001517 | 56 | 238 | 1.7 | 7.0 | 0.00 | 0.13 | 0.04 | 79 | 1008.6 |
| 20260509000018 | 56 | 241 | 4.3 | 8.7 | 0.00 | 0.13 | 0.04 | 77 | 1008.7 |
| 20260508234509 | 57 | 263 | 5.2 | 7.8 | 0.00 | 0.13 | 0.04 | 75 | 1008.8 |
| 20260508233012 | 58 | 231 | 4.3 | 10.4 | 0.00 | 0.13 | 0.04 | 75 | 1008.8 |
| 20260508231519 | 58 | 253 | 4.3 | 8.7 | 0.00 | 0.13 | 0.04 | 73 | 1008.8 |
| 20260508230022 | 58 | 241 | 2.6 | 9.6 | 0.00 | 0.13 | 0.04 | 74 | 1008.8 |
| 20260508224519 | 56 | 236 | 4.3 | 13.0 | 0.00 | 0.13 | 0.04 | 76 | 1009.0 |
| 20260508223019 | 56 | 258 | 5.2 | 7.8 | 0.00 | 0.13 | 0.04 | 75 | 1009.1 |
| 20260508221528 | 56 | 271 | 4.3 | 10.4 | 0.00 | 0.13 | 0.04 | 76 | 1009.0 |
| 20260508220028 | 56 | 249 | 5.2 | 8.7 | 0.00 | 0.13 | 0.04 | 76 | 1009.0 |
| 20260508214523 | 56 | 214 | 5.2 | 11.3 | 0.00 | 0.13 | 0.04 | 76 | 1008.8 |
| 20260508213030 | 57 | 252 | 7.0 | 9.6 | 0.00 | 0.13 | 0.04 | 73 | 1009.0 |
| 20260508211515 | 59 | 170 | 2.6 | 6.1 | 0.00 | 0.13 | 0.04 | 71 | 1009.1 |
| 20260508210018 | 59 | 205 | 3.5 | 7.0 | 0.00 | 0.13 | 0.04 | 69 | 1009.2 |
| 20260508204523 | 59 | 227 | 3.5 | 6.1 | 0.00 | 0.13 | 0.04 | 69 | 1009.2 |
| 20260508203027 | 58 | 229 | 3.5 | 6.1 | 0.00 | 0.13 | 0.04 | 69 | 1009.3 |
| 20260508201524 | 57 | 224 | 1.7 | 6.1 | 0.00 | 0.13 | 0.04 | 71 | 1009.5 |
| 20260508200016 | 57 | 195 | 1.7 | 4.3 | 0.00 | 0.13 | 0.04 | 71 | 1009.7 |
| 20260508194523 | 57 | 260 | 1.7 | 3.5 | 0.00 | 0.13 | 0.04 | 71 | 1010.1 |
| 20260508193023 | 57 | 307 | 1.7 | 2.6 | 0.00 | 0.13 | 0.04 | 73 | 1010.4 |
| 20260508191530 | 57 | 285 | 0.9 | 4.3 | 0.00 | 0.13 | 0.04 | 73 | 1010.6 |
| 20260508190033 | 57 | 240 | 2.6 | 6.1 | 0.00 | 0.13 | 0.04 | 72 | 1010.6 |
| 20260508184518 | 58 | 250 | 3.5 | 6.1 | 0.00 | 0.13 | 0.04 | 73 | 1010.8 |
| 20260508183023 | 56 | 247 | 4.3 | 6.1 | 0.01 | 0.13 | 0.04 | 76 | 1011.2 |
| 20260508181543 | 55 | 207 | 4.3 | 7.8 | 0.01 | 0.13 | 0.04 | 81 | 1011.4 |
| 20260508180009 | 54 | 257 | 3.5 | 4.3 | 0.01 | 0.13 | 0.04 | 81 | 1011.6 |
| 20260508174518 | 53 | 209 | 1.7 | 5.2 | 0.01 | 0.13 | 0.04 | 81 | 1011.9 |
| 20260508173020 | 53 | 249 | 2.6 | 5.2 | 0.00 | 0.12 | 0.03 | 81 | 1012.2 |
| 20260508171503 | 53 | 214 | 3.5 | 5.2 | 0.01 | 0.12 | 0.03 | 80 | 1012.3 |
| 20260508170007 | 54 | 255 | 4.3 | 7.0 | 0.01 | 0.12 | 0.03 | 80 | 1012.4 |
| 20260508164520 | 54 | 258 | 4.3 | 7.0 | 0.01 | 0.12 | 0.03 | 80 | 1012.6 |
| 20260508163013 | 54 | 219 | 2.6 | 9.6 | 0.01 | 0.12 | 0.03 | 78 | 1012.5 |
| 20260508161522 | 55 | 223 | 4.3 | 7.0 | 0.00 | 0.11 | 0.02 | 79 | 1012.3 |
| 20260508160006 | 55 | 246 | 5.2 | 9.6 | 0.00 | 0.11 | 0.02 | 77 | 1012.5 |
| 20260508154511 | 54 | 235 | 4.3 | 9.6 | 0.00 | 0.11 | 0.02 | 81 | 1012.7 |
| 20260508153012 | 52 | 220 | 3.5 | 7.0 | 0.01 | 0.11 | 0.02 | 83 | 1012.7 |
| 20260508151520 | 51 | 269 | 2.6 | 5.2 | 0.01 | 0.11 | 0.02 | 83 | 1012.9 |
| 20260508150024 | 51 | 238 | 1.7 | 4.3 | 0.01 | 0.11 | 0.02 | 82 | 1013.0 |
| 20260508144504 | 51 | 281 | 2.6 | 4.3 | 0.01 | 0.11 | 0.02 | 80 | 1013.2 |
| 20260508143011 | 51 | 269 | 1.7 | 4.3 | 0.00 | 0.10 | 0.01 | 80 | 1013.2 |
| 20260508141515 | 51 | 250 | 3.5 | 7.0 | 0.00 | 0.10 | 0.01 | 79 | 1013.2 |
| 20260508140022 | 51 | 283 | 0.9 | 3.5 | 0.00 | 0.10 | 0.01 | 80 | 1013.1 |
| 20260508134524 | 50 | 258 | 1.7 | 5.2 | 0.00 | 0.10 | 0.01 | 80 | 1013.2 |
| 20260508133029 | 50 | 263 | 1.7 | 3.5 | 0.00 | 0.10 | 0.01 | 80 | 1012.9 |
| 20260508131513 | 49 | 243 | 2.6 | 5.2 | 0.00 | 0.10 | 0.01 | 81 | 1013.0 |
| 20260508130019 | 49 | 264 | 1.7 | 3.5 | 0.00 | 0.10 | 0.01 | 81 | 1013.0 |
| 20260508124520 | 48 | 267 | 2.6 | 4.3 | 0.00 | 0.10 | 0.01 | 81 | 1013.0 |
| 20260508123028 | 48 | 254 | 2.6 | 5.2 | 0.00 | 0.10 | 0.01 | 81 | 1013.0 |
| 20260508121530 | 48 | 301 | 1.7 | 3.5 | 0.00 | 0.10 | 0.01 | 82 | 1013.0 |
| 20260508120015 | 47 | 275 | 1.7 | 3.5 | 0.00 | 0.10 | 0.01 | 83 | 1012.9 |
| 20260508114521 | 46 | 297 | 0.9 | 2.6 | 0.00 | 0.10 | 0.01 | 84 | 1012.8 |
| 20260508113025 | 45 | 255 | 0.0 | 1.7 | 0.00 | 0.10 | 0.01 | 85 | 1012.6 |
| 20260508111535 | 44 | 276 | 0.0 | 1.7 | 0.00 | 0.10 | 0.01 | 84 | 1012.3 |
| 20260508110028 | 44 | 266 | 0.0 | 2.6 | 0.00 | 0.10 | 0.01 | 84 | 1012.4 |
| 20260508104517 | 44 | 250 | 0.9 | 2.6 | 0.00 | 0.10 | 0.01 | 84 | 1012.1 |
| 20260508103029 | 44 | 311 | 0.0 | 4.3 | 0.00 | 0.10 | 0.01 | 83 | 1012.1 |
| 20260508101534 | 45 | 259 | 0.9 | 4.3 | 0.00 | 0.10 | 0.01 | 83 | 1012.1 |
| 20260508100028 | 45 | 259 | 2.6 | 6.1 | 0.00 | 0.10 | 0.01 | 82 | 1012.1 |
| 20260508094529 | 45 | 252 | 1.7 | 7.8 | 0.00 | 0.10 | 0.01 | 82 | 1012.1 |
| 20260508093020 | 45 | 238 | 3.5 | 7.0 | 0.00 | 0.10 | 0.01 | 83 | 1012.2 |
| 20260508091524 | 45 | 251 | 3.5 | 7.0 | 0.00 | 0.10 | 0.01 | 83 | 1012.2 |
| 20260508090007 | 44 | 244 | 2.6 | 6.1 | 0.00 | 0.10 | 0.01 | 86 | 1012.3 |
| 20260508084508 | 43 | 237 | 1.7 | 2.6 | 0.00 | 0.10 | 0.01 | 87 | 1012.2 |
| 20260508083015 | 43 | 220 | 0.9 | 1.7 | 0.00 | 0.10 | 0.01 | 87 | 1012.2 |
| 20260508081520 | 43 | 285 | 0.0 | 1.7 | 0.00 | 0.10 | 0.01 | 87 | 1012.3 |
| 20260508080024 | 43 | 248 | 1.7 | 3.5 | 0.00 | 0.10 | 0.01 | 88 | 1012.3 |
| 20260508074504 | 42 | 208 | 0.0 | 1.7 | 0.00 | 0.10 | 0.01 | 88 | 1012.2 |
| 20260508073013 | 42 | 210 | 0.0 | 2.6 | 0.01 | 0.10 | 0.01 | 88 | 1012.3 |
| 20260508071521 | 43 | 212 | 0.0 | 0.9 | 0.01 | 0.10 | 0.01 | 88 | 1012.4 |
| 20260508070022 | 43 | 211 | 0.0 | 1.7 | 0.01 | 0.10 | 0.01 | 88 | 1012.5 |
| 20260508064536 | 43 | 207 | 0.9 | 2.6 | 0.01 | 0.10 | 0.01 | 88 | 1012.7 |
| 20260508063011 | 43 | 204 | 0.0 | 1.7 | 0.00 | 0.09 | 0.00 | 88 | 1012.8 |
| 20260508061517 | 43 | 231 | 0.9 | 1.7 | 0.00 | 0.09 | 0.00 | 88 | 1012.9 |
| 20260508060021 | 43 | 193 | 0.0 | 1.7 | 0.00 | 0.09 | 0.00 | 87 | 1012.9 |
| 20260508054521 | 44 | 168 | 0.9 | 2.6 | 0.00 | 0.09 | 0.00 | 87 | 1013.1 |
| 20260508053028 | 44 | 213 | 1.7 | 3.5 | 0.00 | 0.09 | 0.00 | 87 | 1013.1 |
| 20260508051510 | 44 | 168 | 0.0 | 1.7 | 0.00 | 0.09 | 0.00 | 86 | 1013.2 |
| 20260508050021 | 44 | 176 | 0.0 | 1.7 | 0.00 | 0.09 | 0.00 | 86 | 1013.2 |
| 20260508044522 | 45 | 176 | 0.0 | 1.7 | 0.01 | 0.09 | 0.00 | 85 | 1013.3 |
| 20260508043023 | 45 | 197 | 0.9 | 3.5 | 0.01 | 0.09 | 0.00 | 85 | 1013.3 |
| 20260508041526 | 46 | 200 | 2.6 | 6.1 | 0.01 | 0.09 | 0.00 | 85 | 1013.2 |
| 20260508040018 | 46 | 192 | 1.7 | 3.5 | 0.02 | 0.09 | 0.00 | 84 | 1013.4 |
| 20260508034516 | 46 | 217 | 1.7 | 7.0 | 0.04 | 0.08 | 0.08 | 83 | 1013.3 |
| 20260508033024 | 46 | 221 | 4.3 | 7.0 | 0.07 | 0.08 | 0.08 | 82 | 1013.2 |
| 20260508031529 | 46 | 198 | 4.3 | 9.6 | 0.08 | 0.08 | 0.08 | 82 | 1012.4 |
| 20260508030028 | 46 | 202 | 1.7 | 5.2 | 0.07 | 0.07 | 0.07 | 81 | 1013.9 |